Location: Caltech
(34.1382°N, 118.1253°W)
Time: 09:47:07
(UTC-07:00)

Hamsat - Visible Passes

Search period start: 30 June 2015 00:00
Search period end: 10 July 2015 00:00
Orbit: 589 x 622 km, 97.6° (Epoch: 29 June)

Date Brightness Start Highest point End Pass type
(mag) Time Alt. Az. Time Alt. Az. Time Alt. Az.
30 Jun ? 04:58:50 10° ENE 05:00:20 12° E 05:02:06 10° ESE visible
01 Jul ? 05:10:36 10° NE 05:13:22 17° E 05:16:19 10° SE visible
07 Jul ? 04:54:09 10° E 04:54:39 10° E 04:55:28 10° E visible
08 Jul ? 05:05:16 10° ENE 05:07:42 15° E 05:10:19 10° SE visible
09 Jul ? 05:17:26 10° NE 05:20:43 21° E 05:24:05 10° SE visible
